Location: Finch Observatory
(42.1604°N, 72.0115°W)
Time: 18:55:17
(UTC-04:00)

Envisat - Visible Passes

Search period start: 23 April 2018 00:00
Search period end: 03 May 2018 00:00
Orbit: 764 x 766 km, 98.2° (Epoch: 23 April)

Date Brightness Start Highest point End Pass type
(mag) Time Alt. Az. Time Alt. Az. Time Alt. Az.
23 Apr 3.8 20:32:05 10° S 20:37:02 53° W 20:42:01 10° NNW visible
24 Apr 5.7 21:37:15 10° WSW 21:39:49 14° W 21:42:24 10° WNW visible
25 Apr 4.8 20:58:18 10° SSW 21:02:45 30° W 21:07:13 10° NW visible
26 Apr 3.4 20:20:49 10° S 20:25:52 68° WSW 20:30:57 10° NNW visible
27 Apr 5.6 21:25:11 10° SW 21:28:33 18° W 21:31:56 10° NW visible
28 Apr 4.4 20:46:49 10° SSW 20:51:32 38° W 20:56:16 10° NNW visible
29 Apr 3.1 20:09:38 10° SSE 20:14:42 85° WSW 20:19:49 10° NNW visible
30 Apr 5.3 21:13:23 10° SW 21:17:17 22° W 21:21:14 10° NW visible
01 May 4.0 20:35:26 10° S 20:40:20 48° W 20:45:16 10° NNW visible
02 May 5.8 21:41:02 10° WSW 21:43:09 12° W 21:45:16 10° WNW visible
